Location: Makakahi
(40.6833°S, 175.6000°E)
Time: 19:45:46
(UTC+00:00)

FENGYUN 1C DEB - Pass Details

Date: 10 February 2026
Orbit: 839 x 906 km, 98.9° (Epoch: 9 March)

Event Time Altitude Azimuth Distance (km) Brightness Sun altitude
Rises 10:57:56 0° 187° (S) 3,440 ? -30.9°
Reaches altitude 10° 11:02:02 10° 217° (SW) 2,504 ? -31.2°
Maximum altitude 11:03:54 12° 237° (WSW) 2,382 ? -31.4°
Drops below altitude 10° 11:05:45 10° 257° (WSW) 2,507 ? -31.5°
Sets 11:09:53 0° 287° (WNW) 3,449 ? -31.9°
